Prince George Au, British Columbia

8:14 PM PST on February 22, 2017 (GMT -0800)
Prince George

Weather History for CYXS - February, 2013

Change the Weather History Date:

Monday, February 11, 2013

  Actual Average Record
Temperature  
Mean Temperature 30 °F -  
Max Temperature 37 °F 34 °F 42 °F (1998)
Min Temperature 22 °F 16 °F -11 °F (2000)
Degree Days  
Heating Degree Days 36    
Moisture  
Dew Point 29 °F    
Average Humidity 86    
Maximum Humidity 100    
Minimum Humidity 54    
Precipitation  
Precipitation 0.03 in 0.05 in - ()
Sea Level Pressure  
Sea Level Pressure 30.13 in    
Wind  
Wind Speed 9 mph ()    
Max Wind Speed 15 mph    
Max Gust Speed 23 mph    
Visibility 7.3 miles    
Events Rain , Snow    
Averages and records for this station are not official NWS values.
T = Trace of Precipitation, MM = Missing Value Source: Averaged Metar Reports

Daily Weather History Graph

Daily Weather History Graph

Search for Another Location

Airport or City:

Trip Planner

Search our weather history database for the weather conditions in past years. The results will help you decide how hot, cold, wet, or windy it might be!

Date:

Astronomy

Feb. 11, 2013 Rise Set
Actual Time 7:37 AM PST 5:13 PM PST
Civil Twilight 7:00 AM PST 5:50 PM PST
Nautical Twilight 6:19 AM PST 6:31 PM PST
Astronomical Twilight 5:38 AM PST 7:12 PM PST
Moon 7:42 AM PST (2/11) 7:43 PM PST (2/11)
Length of Visible Light 10h 49m
Length of Day
9h 35m
Waxing Crescent, 3% of the Moon is Illuminated
Feb 11
Waxing Crescent
Feb 17
First Quarter
Feb 25
Full
Mar 4
Last Quarter
Mar 11
New

Hourly Weather History & Observations

Time (PST) Temp. Windchill Dew Point Humidity Pressure Visibility Wind Dir Wind Speed Gust Speed Precip Events Conditions
12:00 AM 24.8 °F 16.9 °F 21.2 °F 86% 30.14 in 9.0 mi South 6.9 mph - N/A   Clear
1:00 AM 27 °F - 24 °F 84% 30.15 in 10 mi ESE 9.2 mph - -  
1:00 AM 26.6 °F 16.8 °F 24.8 °F 93% 30.15 in 9.0 mi ESE 10.4 mph - N/A   Clear
2:00 AM 28.4 °F 18.0 °F 24.8 °F 86% 30.14 in 9.0 mi South 12.7 mph - N/A   Clear
3:00 AM 28.4 °F 20.4 °F 24.8 °F 86% 30.14 in 9.0 mi South 8.1 mph - N/A   Mostly Cloudy
4:00 AM 30 °F - 26 °F 78% 30.13 in 10 mi South 11.5 mph - -  
4:00 AM 30.2 °F 20.8 °F 26.6 °F 86% 30.13 in 9.0 mi South 11.5 mph - N/A   Mostly Cloudy
5:00 AM 30.2 °F 20.2 °F 26.6 °F 86% 30.12 in 9.0 mi South 12.7 mph - N/A   Overcast
6:00 AM 32.0 °F 22.5 °F 26.6 °F 80% 30.12 in 9.0 mi South 12.7 mph - N/A   Overcast
7:00 AM 31 °F - 27 °F 78% 30.12 in 10 mi South 10.4 mph - -   Overcast
7:00 AM 30.2 °F 20.8 °F 26.6 °F 86% 30.12 in 9.0 mi South 11.5 mph - N/A   Overcast
8:00 AM 30.2 °F 21.3 °F 26.6 °F 86% 30.13 in 9.0 mi South 10.4 mph - N/A   Overcast
9:00 AM 30.2 °F 19.8 °F 26.6 °F 86% 30.13 in 9.0 mi South 13.8 mph - N/A   Overcast
10:00 AM 31 °F - 26 °F 76% 30.15 in 10 mi South 11.5 mph - -   Overcast
10:00 AM 30.2 °F 20.8 °F 26.6 °F 86% 30.15 in 9.0 mi South 11.5 mph - N/A   Overcast
11:00 AM 32.0 °F 22.1 °F 26.6 °F 80% 30.14 in 9.0 mi South 13.8 mph - N/A   Overcast
12:00 PM 33.8 °F 25.3 °F 26.6 °F 75% 30.14 in 9.0 mi South 11.5 mph - N/A   Overcast
1:00 PM 35 °F - 26 °F 60% 30.13 in 10 mi South 12.7 mph - -  
1:00 PM 35.6 °F 26.6 °F 26.6 °F 70% 30.13 in 9.0 mi South 13.8 mph - N/A   Mostly Cloudy
3:00 PM 37.4 °F 30.8 °F 26.6 °F 65% 30.12 in 9.0 mi South 9.2 mph - N/A   Overcast
3:10 PM 37.4 °F 30.8 °F 26.6 °F 65% 30.12 in 9.0 mi South 9.2 mph - N/A Rain Light Rain
3:24 PM 37.4 °F 32.1 °F 26.6 °F 65% 30.12 in 9.0 mi South 6.9 mph - N/A   Overcast
3:44 PM 37.4 °F 32.8 °F 26.6 °F 65% 30.12 in 9.0 mi SSW 5.8 mph - N/A Rain Light Rain
3:53 PM 37.4 °F 29.3 °F 26.6 °F 65% 30.12 in 9.0 mi WSW 12.7 mph - N/A   Overcast
4:00 PM 38 °F - 27 °F 54% 30.13 in 10 mi West 10.4 mph - -   Overcast
4:00 PM 37.4 °F 30.8 °F 26.6 °F 65% 30.12 in 9.0 mi West 9.2 mph - N/A   Overcast
4:06 PM 37.4 °F 28.9 °F 28.4 °F 70% 30.13 in 9.0 mi West 13.8 mph - N/A Rain Light Rain
4:37 PM 37.4 °F 33.8 °F 28.4 °F 70% 30.12 in 9.0 mi South 4.6 mph - N/A   Overcast
4:55 PM 35.6 °F 29.9 °F 30.2 °F 81% 30.13 in 9.0 mi SSE 6.9 mph - N/A Rain Light Rain
5:00 PM 35.6 °F 28.0 °F 30.2 °F 81% 30.12 in 9.0 mi SSE 10.4 mph - N/A Rain Light Rain
5:32 PM 33.8 °F 27.0 °F 30.2 °F 87% 30.14 in 6.0 mi South 8.1 mph - N/A Rain Light Rain
5:33 PM 33.8 °F 27.0 °F 30.2 °F 87% 30.14 in 5.0 mi South 8.1 mph - N/A   Overcast
5:38 PM 33.8 °F 27.0 °F 30.2 °F 87% 30.14 in 5.0 mi South 8.1 mph - N/A   Overcast
5:41 PM 33.8 °F 27.7 °F 30.2 °F 87% 30.14 in 3.0 mi South 6.9 mph - N/A Snow Light Snow
5:45 PM 33.8 °F 27.0 °F 30.2 °F 87% 30.14 in 2.2 mi South 8.1 mph - N/A Snow Light Snow
5:46 PM 33.8 °F 27.0 °F 30.2 °F 87% 30.14 in 2.2 mi South 8.1 mph - N/A Snow Light Snow
5:56 PM 33.8 °F 28.6 °F 32.0 °F 93% 30.14 in 1.8 mi South 5.8 mph - N/A Snow Light Snow
6:00 PM 32.0 °F 26.4 °F 32.0 °F 100% 30.14 in 1.5 mi South 5.8 mph - N/A Snow Light Snow
6:01 PM 32.0 °F 26.4 °F 30.2 °F 93% 30.14 in 1.5 mi South 5.8 mph - N/A Snow Light Snow
6:41 PM 32.0 °F 24.8 °F 32.0 °F 100% 30.14 in 1.2 mi South 8.1 mph - N/A Snow Light Snow
6:51 PM 32.0 °F 24.8 °F 32.0 °F 100% 30.14 in 1.2 mi South 8.1 mph - N/A Snow Light Snow
7:00 PM 32 °F - 31 °F 97% 30.14 in 1 mi South 9.2 mph - - Snow Light Snow
7:00 PM 32.0 °F 23.6 °F 32.0 °F 100% 30.14 in 1.2 mi South 10.4 mph - N/A Snow Light Snow
7:04 PM 32.0 °F 24.2 °F 32.0 °F 100% 30.13 in 1.2 mi South 9.2 mph - N/A Snow Light Snow
7:20 PM 32.0 °F 23.6 °F 32.0 °F 100% 30.13 in 2.0 mi South 10.4 mph - N/A Snow Light Snow
7:24 PM 32.0 °F 23.6 °F 32.0 °F 100% 30.13 in 3.0 mi South 10.4 mph - N/A Snow Light Snow
7:31 PM 32.0 °F 24.2 °F 32.0 °F 100% 30.13 in 7.0 mi South 9.2 mph - N/A Snow Light Snow
7:34 PM 32.0 °F 24.2 °F 32.0 °F 100% 30.14 in 8.0 mi South 9.2 mph - N/A Rain , Snow Light Snow
7:39 PM 32.0 °F 23.6 °F 32.0 °F 100% 30.13 in 9.0 mi SSE 10.4 mph - N/A Rain Light Freezing Rain
7:43 PM 32.0 °F 23.6 °F 32.0 °F 100% 30.13 in 9.0 mi South 10.4 mph - N/A Rain Light Rain
7:58 PM 32.0 °F 23.0 °F 32.0 °F 100% 30.13 in 9.0 mi SSE 11.5 mph - N/A   Overcast
8:00 PM 32.0 °F 23.6 °F 32.0 °F 100% 30.13 in 9.0 mi SSE 10.4 mph - N/A   Overcast
9:00 PM 32.0 °F 22.5 °F 32.0 °F 100% 30.11 in 9.0 mi South 12.7 mph - N/A   Overcast
10:00 PM 33 °F - 31 °F 91% 30.10 in 10 mi South 13.8 mph - -   Clear
10:00 PM 32.0 °F 22.1 °F 32.0 °F 100% 30.10 in 9.0 mi South 13.8 mph - N/A   Overcast
10:13 PM 32.0 °F 22.1 °F 32.0 °F 100% 30.10 in 9.0 mi South 13.8 mph - N/A   Overcast
10:42 PM 32.0 °F 21.6 °F 32.0 °F 100% 30.09 in 9.0 mi South 15.0 mph - N/A   Overcast
11:00 PM 32.0 °F 21.6 °F 32.0 °F 100% 30.09 in 9.0 mi South 15.0 mph 23.0 mph N/A   Overcast